{"data":{"norad_id":68596,"epoch":"2026-05-25T04:00:03.998880Z","epoch_age_seconds":63675,"freshness":"FRESH","line1":"1 68596U 26072Z   26145.16671295  .00000125  00000+0  24404-4 0  9991","line2":"2 68596  51.8785 290.1599 0009036 308.2922  37.8981 15.12217021  4450","mean_motion":15.12217021,"eccentricity":0.0009036,"inclination_deg":51.8785,"raan_deg":290.1599,"arg_perigee_deg":308.2922,"mean_anomaly_deg":37.8981,"bstar":2.4404e-5,"rev_number":445,"period_min":95.22442744678,"perigee_km":523.19871386095,"apogee_km":535.68208773967,"semimajor_km":6907.5774008003,"source":"CELESTRAK","updated_at":"2026-05-25T13:38:07.954267Z"}}